OK,118,15,649,118,2014-10-01T01:40:00,0,28071976,180844
OK,118,15,649,118,2014-10-01T01:45:00,0,28072419,180844
OK,118,15,649,118,2014-10-01T01:50:00,0,28072868,180844
OK,118,15,649,118,2014-10-01T01:55:00,0,28073315,180844
OK,118,15,649,118,2014-10-01T02:00:00,0,28073762,180844
OK,118,15,649,118,2014-10-01T02:05:00,0,28074081,180844
OK,118,15,649,118,2014-10-01T02:10:00,0,28074530,180844
OK,118,15,649,118,2014-10-01T02:15:00,0,28074970,180844
OK,95,19,649,95,2014-10-01T02:20:00,3,28075419,180844
OK,95,19,649,95,2014-10-01T02:25:00,0,28075868,180844
OK,95,19,649,95,2014-10-01T02:30:00,0,28076251,180844
OK,95,19,649,95,2014-10-01T02:35:00,0,28076700,180844
OK,95,19,649,95,2014-10-01T02:40:00,0,28077149,180844
OK,95,19,649,95,2014-10-01T02:45:00,0,28077598,180844
OK,95,19,649,95,2014-10-01T02:50:00,0,28078001,180844
OK,95,19,649,95,2014-10-01T02:55:00,0,28078450,180844
OK,82,22,649,82,2014-10-01T03:00:00,1,28078895,180844
OK,82,22,649,82,2014-10-01T03:05:00,0,28079343,180844
OK,82,22,649,82,2014-10-01T03:10:00,0,28079786,180844
OK,82,22,649,82,2014-10-01T03:15:00,0,28080235,180844
OK,82,22,649,82,2014-10-01T03:20:00,0,28080569,180844
OK,82,22,649,82,2014-10-01T03:25:00,0,28081018,180844
OK,82,22,649,82,2014-10-01T03:30:00,0,28081467,180844
OK,82,22,649,82,2014-10-01T03:35:00,0,28081914,180844
OK,82,22,649,82,2014-10-01T03:40:00,0,28082363,180844
OK,82,22,649,82,2014-10-01T03:45:00,0,28082796,180844
OK,82,22,649,82,2014-10-01T03:50:00,0,28083228,180844
OK,46,39,649,46,2014-10-01T03:55:00,1,28083677,180844
OK,46,39,649,46,2014-10-01T04:00:00,0,28084126,180844
OK,46,39,649,46,2014-10-01T04:05:00,0,28084567,180844
OK,46,39,649,46,2014-10-01T04:10:00,0,28084992,180844
OK,46,39,649,46,2014-10-01T04:15:00,0,28085441,180844
OK,46,39,649,46,2014-10-01T04:20:00,0,28085886,180844
OK,34,53,649,34,2014-10-01T04:25:00,1,28086335,180844
OK,113,16,649,113,2014-10-01T04:30:00,3,28086777,180844
OK,113,16,649,113,2014-10-01T04:35:00,2,28087226,180844
OK,113,16,649,113,2014-10-01T04:40:00,0,28087671,180844
OK,113,16,649,113,2014-10-01T04:45:00,0,28088120,180844
OK,37,49,649,37,2014-10-01T04:50:00,4,28088544,180844
OK,113,16,649,113,2014-10-01T04:55:00,4,28088993,180844
OK,74,24,649,74,2014-10-01T05:00:00,5,28089423,180844
OK,74,24,649,74,2014-10-01T05:05:00,5,28089872,180844
OK,100,18,649,100,2014-10-01T05:10:00,10,28090321,180844
OK,104,17,649,104,2014-10-01T05:15:00,8,28090665,180844
OK,109,16,649,109,2014-10-01T05:20:00,6,28091114,180844
OK,95,19,649,95,2014-10-01T05:25:00,3,28091563,180844
OK,75,24,649,75,2014-10-01T05:30:00,9,28091980,180844
OK,77,23,649,77,2014-10-01T05:35:00,12,28092429,180844
OK,88,20,649,88,2014-10-01T05:40:00,14,28092873,180844
OK,92,19,649,92,2014-10-01T05:45:00,11,28093314,180844
OK,81,22,649,81,2014-10-01T05:50:00,12,28093745,180844
OK,81,22,649,81,2014-10-01T05:55:00,10,28094194,180844
OK,96,18,649,96,2014-10-01T06:00:00,8,28094605,180844
OK,83,21,649,83,2014-10-01T06:05:00,5,28095050,180844
OK,50,36,649,50,2014-10-01T06:10:00,5,28095497,180844
OK,67,27,649,67,2014-10-01T06:15:00,10,28095946,180844
OK,75,24,649,75,2014-10-01T06:20:00,10,28096359,180844
OK,79,23,649,79,2014-10-01T06:25:00,10,28096808,180844
OK,82,22,649,82,2014-10-01T06:30:00,7,28097242,180844
OK,88,20,649,88,2014-10-01T06:35:00,9,28097691,180844
OK,85,21,649,85,2014-10-01T06:40:00,11,28098140,180844
OK,74,24,649,74,2014-10-01T06:45:00,10,28098577,180844
OK,75,24,649,75,2014-10-01T06:50:00,13,28099021,180844
OK,81,22,649,81,2014-10-01T06:55:00,10,28099469,180844
OK,81,22,649,81,2014-10-01T07:00:00,6,28099812,180844
OK,81,22,649,81,2014-10-01T07:05:00,6,28100261,180844
OK,76,23,649,76,2014-10-01T07:10:00,5,28100568,180844
OK,62,29,649,62,2014-10-01T07:15:00,4,28101017,180844
OK,83,21,649,83,2014-10-01T07:20:00,9,28101388,180844
OK,77,23,649,77,2014-10-01T07:25:00,12,28101837,180844
OK,61,29,649,61,2014-10-01T07:30:00,8,28102273,180844
OK,93,19,649,93,2014-10-01T07:35:00,5,28102722,180844
OK,63,28,649,63,2014-10-01T07:40:00,13,28103149,180844
OK,71,25,649,71,2014-10-01T07:45:00,14,28103596,180844
OK,70,25,649,70,2014-10-01T07:50:00,9,28104041,180844
OK,47,38,649,47,2014-10-01T07:55:00,7,28104486,180844
OK,68,26,649,68,2014-10-01T08:00:00,4,28104927,180844
OK,57,31,649,57,2014-10-01T08:05:00,3,28105372,180844
OK,105,17,649,105,2014-10-01T08:10:00,6,28105812,180844
OK,93,19,649,93,2014-10-01T08:15:00,12,28106261,180844
OK,92,19,649,92,2014-10-01T08:20:00,9,28106698,180844
OK,70,25,649,70,2014-10-01T08:25:00,4,28107104,180844
OK,52,34,649,52,2014-10-01T08:30:00,7,28107536,180844
OK,95,19,649,95,2014-10-01T08:35:00,7,28107985,180844
OK,98,18,649,98,2014-10-01T08:40:00,6,28108424,180844
OK,123,14,649,123,2014-10-01T08:45:00,2,28108873,180844
OK,93,19,649,93,2014-10-01T08:50:00,3,28109301,180844
OK,91,19,649,91,2014-10-01T08:55:00,3,28109750,180844
OK,72,25,649,72,2014-10-01T09:00:00,4,28110093,180844
OK,70,25,649,70,2014-10-01T09:05:00,5,28110542,180844
OK,43,42,649,43,2014-10-01T09:10:00,3,28110965,180844
OK,104,17,649,104,2014-10-01T09:15:00,9,28111414,180844
OK,81,22,649,81,2014-10-01T09:20:00,4,28111843,180844
OK,58,31,649,58,2014-10-01T09:25:00,0,28112292,180844
OK,58,31,649,58,2014-10-01T09:30:00,0,28112633,180844
OK,85,21,649,85,2014-10-01T09:35:00,9,28113082,180844
OK,69,26,649,69,2014-10-01T09:40:00,9,28113506,180844
OK,67,27,649,67,2014-10-01T09:45:00,5,28113955,180844
OK,62,29,649,62,2014-10-01T09:50:00,3,28114387,180844
OK,50,36,649,50,2014-10-01T09:55:00,2,28114836,180844
OK,79,23,649,79,2014-10-01T10:00:00,8,28115190,180844
OK,86,21,649,86,2014-10-01T10:05:00,9,28115639,180844
OK,82,22,649,82,2014-10-01T10:10:00,10,28116051,180844
OK,71,25,649,71,2014-10-01T10:15:00,10,28116500,180844
OK,90,20,649,90,2014-10-01T10:20:00,13,28116908,180844
OK,101,18,649,101,2014-10-01T10:25:00,10,28117357,180844
OK,70,25,649,70,2014-10-01T10:30:00,7,28117782,180844
OK,106,17,649,106,2014-10-01T10:35:00,11,28118231,180844
OK,61,29,649,61,2014-10-01T10:40:00,13,28118676,180844
OK,61,29,649,61,2014-10-01T10:45:00,11,28119123,180844
OK,51,35,649,51,2014-10-01T10:50:00,9,28119567,180844
OK,65,27,649,65,2014-10-01T10:55:00,10,28120015,180844
OK,75,24,649,75,2014-10-01T11:00:00,6,28120463,180844
OK,47,38,649,47,2014-10-01T11:05:00,6,28120912,180844
OK,117,15,649,117,2014-10-01T11:10:00,9,28121295,180844
OK,116,15,649,116,2014-10-01T11:15:00,9,28121744,180844
OK,62,29,649,62,2014-10-01T11:20:00,5,28122182,180844
OK,84,21,649,84,2014-10-01T11:25:00,6,28122631,180844
OK,75,24,649,75,2014-10-01T11:30:00,8,28123072,180844
OK,73,24,649,73,2014-10-01T11:35:00,7,28123521,180844
OK,67,27,649,67,2014-10-01T11:40:00,4,28123953,180844
OK,89,20,649,89,2014-10-01T11:45:00,7,28124402,180844
OK,102,17,649,102,2014-10-01T11:50:00,7,28124804,180844
OK,56,32,649,56,2014-10-01T11:55:00,8,28125253,180844
OK,101,18,649,101,2014-10-01T12:00:00,5,28125682,180844
OK,57,31,649,57,2014-10-01T12:05:00,11,28126131,180844
OK,59,30,649,59,2014-10-01T12:10:00,6,28126483,180844
OK,65,27,649,65,2014-10-01T12:15:00,8,28126932,180844
OK,77,23,649,77,2014-10-01T12:20:00,11,28127381,180844
OK,96,18,649,96,2014-10-01T12:25:00,7,28127830,180844
OK,55,33,649,55,2014-10-01T12:30:00,8,28128258,180844
OK,51,35,649,51,2014-10-01T12:35:00,15,28128707,180844
OK,52,34,649,52,2014-10-01T12:40:00,10,28129142,180844
OK,59,30,649,59,2014-10-01T12:45:00,9,28129591,180844
OK,62,29,649,62,2014-10-01T12:50:00,20,28130025,180844
OK,57,31,649,57,2014-10-01T12:55:00,24,28130474,180844
OK,51,35,649,51,2014-10-01T13:00:00,13,28130902,180844
OK,59,30,649,59,2014-10-01T13:05:00,13,28131351,180844
OK,60,30,649,60,2014-10-01T13:10:00,15,28131788,180844
OK,59,30,649,59,2014-10-01T13:15:00,9,28132237,180844
OK,94,19,649,94,2014-10-01T13:20:00,16,28132675,180844
OK,121,15,649,121,2014-10-01T13:25:00,17,28133122,180844
OK,135,13,649,135,2014-10-01T13:30:00,12,28133560,180844
OK,141,12,649,141,2014-10-01T13:35:00,14,28134009,180844
OK,161,11,649,161,2014-10-01T13:40:00,17,28134448,180844
OK,157,11,649,157,2014-10-01T13:45:00,19,28134897,180844
OK,157,11,649,157,2014-10-01T13:50:00,16,28135316,180844
OK,168,10,649,168,2014-10-01T13:55:00,15,28135765,180844
OK,139,13,649,139,2014-10-01T14:00:00,8,28136202,180844
OK,103,17,649,103,2014-10-01T14:05:00,4,28136651,180844
OK,122,14,649,122,2014-10-01T14:10:00,17,28137091,180844
OK,126,14,649,126,2014-10-01T14:15:00,13,28137540,180844
OK,138,13,649,138,2014-10-01T14:20:00,17,28137974,180844
OK,144,12,649,144,2014-10-01T14:25:00,13,28138423,180844
OK,152,11,649,152,2014-10-01T14:30:00,8,28138851,180844
OK,152,11,649,152,2014-10-01T14:35:00,12,28139300,180844
OK,164,11,649,164,2014-10-01T14:40:00,12,28139711,180844
OK,178,10,649,178,2014-10-01T14:45:00,14,28140160,180844
OK,128,14,649,128,2014-10-01T14:50:00,11,28140602,180844
OK,128,14,649,128,2014-10-01T14:55:00,13,28141051,180844
OK,110,16,649,110,2014-10-01T15:00:00,18,28141477,180844
OK,91,19,649,91,2014-10-01T15:05:00,14,28141926,180844
OK,117,15,649,117,2014-10-01T15:10:00,12,28142354,180844
OK,71,25,649,71,2014-10-01T15:15:00,11,28142803,180844
OK,109,16,649,109,2014-10-01T15:20:00,16,28143230,180844
OK,112,16,649,112,2014-10-01T15:25:00,16,28143679,180844
OK,115,15,649,115,2014-10-01T15:30:00,14,28144127,180844
OK,119,15,649,119,2014-10-01T15:35:00,18,28144576,180844
OK,98,18,649,98,2014-10-01T15:40:00,21,28144997,180844
OK,59,30,649,59,2014-10-01T15:45:00,12,28145411,180844
OK,59,30,649,59,2014-10-01T15:50:00,5,28145860,180844
OK,57,31,649,57,2014-10-01T15:55:00,6,28146309,180844
OK,57,31,649,57,2014-10-01T16:00:00,4,28146758,180844
OK,93,19,649,93,2014-10-01T16:05:00,4,28147166,180844
OK,103,17,649,103,2014-10-01T16:10:00,10,28147610,180844
OK,90,20,649,90,2014-10-01T16:15:00,11,28148059,180844
OK,80,22,649,80,2014-10-01T16:20:00,7,28148460,180844
OK,110,16,649,110,2014-10-01T16:25:00,4,28148909,180844
OK,70,25,649,70,2014-10-01T16:30:00,2,28149348,180844
OK,78,23,649,78,2014-10-01T16:35:00,6,28149797,180844
OK,78,23,649,78,2014-10-01T16:40:00,3,28150223,180844
OK,70,25,649,70,2014-10-01T16:45:00,2,28150672,180844
OK,85,21,649,85,2014-10-01T16:50:00,3,28151090,180844
OK,74,24,649,74,2014-10-01T16:55:00,11,28151539,180844
OK,40,45,649,40,2014-10-01T17:05:00,5,28151988,180844
OK,74,24,649,74,2014-10-01T17:10:00,6,28152437,180844
OK,103,17,649,103,2014-10-01T17:15:00,2,28152883,180844
OK,97,18,649,97,2014-10-01T17:20:00,3,28153330,180844
OK,74,24,649,74,2014-10-01T17:25:00,2,28153779,180844
OK,84,21,649,84,2014-10-01T17:30:00,3,28154189,180844
OK,58,31,649,58,2014-10-01T17:35:00,2,28154638,180844
OK,42,43,649,42,2014-10-01T17:40:00,1,28155080,180844
OK,66,27,649,66,2014-10-01T17:45:00,2,28155528,180844
OK,59,30,649,59,2014-10-01T17:50:00,2,28155946,180844
OK,57,31,649,57,2014-10-01T17:55:00,2,28156395,180844
OK,90,20,649,90,2014-10-01T18:00:00,2,28156843,180844
OK,73,24,649,73,2014-10-01T18:05:00,2,28157282,180844
OK,69,26,649,69,2014-10-01T18:10:00,7,28157712,180844
OK,43,42,649,43,2014-10-01T18:15:00,7,28158160,180844
OK,56,32,649,56,2014-10-01T18:20:00,4,28158604,180844
OK,80,22,649,80,2014-10-01T18:25:00,2,28159050,180844
OK,49,37,649,49,2014-10-01T18:30:00,2,28159496,180844
OK,79,23,649,79,2014-10-01T18:35:00,4,28159831,180844
OK,71,25,649,71,2014-10-01T18:40:00,1,28160280,180844
OK,44,41,649,44,2014-10-01T18:45:00,3,28160729,180844
OK,43,42,649,43,2014-10-01T18:50:00,1,28161167,180844
OK,61,29,649,61,2014-10-01T18:55:00,1,28161616,180844
OK,51,35,649,51,2014-10-01T19:00:00,4,28162033,180844
OK,41,44,649,41,2014-10-01T19:05:00,3,28162482,180844
OK,112,16,649,112,2014-10-01T19:10:00,4,28162876,180844
OK,48,37,649,48,2014-10-01T19:15:00,5,28163315,180844
OK,48,37,649,48,2014-10-01T19:20:00,5,28163763,180844
OK,90,20,649,90,2014-10-01T19:25:00,1,28164212,180844
OK,52,34,649,52,2014-10-01T19:30:00,3,28164643,180844
OK,81,22,649,81,2014-10-01T19:35:00,5,28165092,180844
OK,70,25,649,70,2014-10-01T19:40:00,5,28165517,180844
OK,58,31,649,58,2014-10-01T19:45:00,7,28165965,180844
OK,53,34,649,53,2014-10-01T19:50:00,5,28166406,180844
OK,73,24,649,73,2014-10-01T19:55:00,2,28166768,180844
OK,72,25,649,72,2014-10-01T20:00:00,2,28167217,180844
OK,57,31,649,57,2014-10-01T20:05:00,4,28167646,180844
OK,74,24,649,74,2014-10-01T20:10:00,6,28168079,180844
OK,87,20,649,87,2014-10-01T20:15:00,4,28168528,180844
OK,44,41,649,44,2014-10-01T20:20:00,3,28168973,180844
OK,78,23,649,78,2014-10-01T20:25:00,2,28169422,180844
OK,55,33,649,55,2014-10-01T20:30:00,3,28169870,180844
OK,44,41,649,44,2014-10-01T20:35:00,4,28170296,180844
OK,54,33,649,54,2014-10-01T20:40:00,2,28170741,180844
OK,74,24,649,74,2014-10-01T20:45:00,1,28171189,180844
OK,74,24,649,74,2014-10-01T20:50:00,0,28171626,180844
OK,73,24,649,73,2014-10-01T20:55:00,1,28172072,180844
OK,76,23,649,76,2014-10-01T21:00:00,4,28172520,180844
OK,60,30,649,60,2014-10-01T21:05:00,3,28172966,180844
OK,60,30,649,60,2014-10-01T21:10:00,1,28173412,180844
OK,46,39,649,46,2014-10-01T21:15:00,2,28173861,180844
OK,48,37,649,48,2014-10-01T21:20:00,3,28174302,180844
OK,64,28,649,64,2014-10-01T21:25:00,0,28174751,180844
OK,74,24,649,74,2014-10-01T21:30:00,2,28175177,180844
OK,78,23,649,78,2014-10-01T21:35:00,3,28175573,180844
OK,92,19,649,92,2014-10-01T21:40:00,1,28176022,180844
OK,92,19,649,92,2014-10-01T21:45:00,0,28176471,180844
OK,92,19,649,92,2014-10-01T21:50:00,0,28176920,180844
OK,49,37,649,49,2014-10-01T21:55:00,2,28177276,180844
OK,49,37,649,49,2014-10-01T22:00:00,0,28177716,180844
OK,49,37,649,49,2014-10-01T22:05:00,0,28178162,180844
OK,49,37,649,49,2014-10-01T22:10:00,0,28178611,180844
OK,49,37,649,49,2014-10-01T22:15:00,0,28179058,180844
OK,49,37,649,49,2014-10-01T22:20:00,0,28179492,180844
OK,49,37,649,49,2014-10-01T22:25:00,0,28179935,180844
OK,49,37,649,49,2014-10-01T22:30:00,0,28180382,180844
OK,49,37,649,49,2014-10-01T22:35:00,0,28180780,180844
OK,49,37,649,49,2014-10-01T22:40:00,0,28181229,180844
OK,49,37,649,49,2014-10-01T22:45:00,0,28181653,180844
OK,49,37,649,49,2014-10-01T22:50:00,0,28182101,180844
OK,49,37,649,49,2014-10-01T22:55:00,0,28182548,180844
OK,49,37,649,49,2014-10-01T23:00:00,0,28182997,180844
OK,49,37,649,49,2014-10-01T23:05:00,0,28183414,180844
OK,49,37,649,49,2014-10-01T23:10:00,0,28183847,180844
OK,49,37,649,49,2014-10-01T23:15:00,0,28184292,180844
OK,49,37,649,49,2014-10-01T23:20:00,0,28184741,180844
OK,49,37,649,49,2014-10-01T23:25:00,0,28185176,180844
OK,49,37,649,49,2014-10-01T23:30:00,0,28185624,180844
OK,49,37,649,49,2014-10-01T23:40:00,0,28186447,180844
OK,49,37,649,49,2014-10-01T23:45:00,0,28186896,180844
OK,49,37,649,49,2014-10-01T23:50:00,0,28187291,180844
OK,49,37,649,49,2014-10-01T23:55:00,0,28187736,180844
OK,49,37,649,49,2014-10-02T00:00:00,0,28188185,180844
OK,49,37,649,49,2014-10-02T00:05:00,0,28188625,180844
OK,49,37,649,49,2014-10-02T00:10:00,0,28189062,180844
OK,49,37,649,49,2014-10-02T00:15:00,0,28189511,180844
OK,49,37,649,49,2014-10-02T00:20:00,0,28189933,180844
OK,49,37,649,49,2014-10-02T00:25:00,0,28190378,180844
OK,49,37,649,49,2014-10-02T00:30:00,0,28190735,180844
OK,49,37,649,49,2014-10-02T00:35:00,0,28191184,180844
OK,49,37,649,49,2014-10-02T00:40:00,0,28191633,180844
OK,49,37,649,49,2014-10-02T00:45:00,0,28191939,180844
OK,49,37,649,49,2014-10-02T00:50:00,0,28192388,180844
OK,49,37,649,49,2014-10-02T00:55:00,0,28192821,180844
OK,49,37,649,49,2014-10-02T01:00:00,0,28193243,180844
OK,49,37,649,49,2014-10-02T01:05:00,0,28193632,180844
OK,49,37,649,49,2014-10-02T01:10:00,0,28194081,180844
OK,49,37,649,49,2014-10-02T01:15:00,0,28194530,180844
OK,101,18,649,101,2014-10-02T01:20:00,1,28194970,180844
OK,101,18,649,101,2014-10-02T01:25:00,0,28195215,180844
OK,101,18,649,101,2014-10-02T01:30:00,0,28195664,180844
OK,101,18,649,101,2014-10-02T01:35:00,0,28196113,180844
OK,101,18,649,101,2014-10-02T01:40:00,0,28196397,180844
OK,101,18,649,101,2014-10-02T01:45:00,0,28196846,180844
OK,101,18,649,101,2014-10-02T01:50:00,0,28197269,180844
OK,101,18,649,101,2014-10-02T01:55:00,0,28197718,180844
OK,101,18,649,101,2014-10-02T02:00:00,0,28198166,180844
OK,101,18,649,101,2014-10-02T02:05:00,0,28198614,180844
OK,101,18,649,101,2014-10-02T02:10:00,0,28199063,180844
OK,65,27,649,65,2014-10-02T02:15:00,0,28199435,180844
OK,65,27,649,65,2014-10-02T02:20:00,0,28199877,180844
OK,65,27,649,65,2014-10-02T02:25:00,0,28200319,180844
OK,65,27,649,65,2014-10-02T02:30:00,0,28200762,180844
OK,65,27,649,65,2014-10-02T02:35:00,0,28201211,180844
OK,65,27,649,65,2014-10-02T02:45:00,0,28201642,180844
OK,65,27,649,65,2014-10-02T02:50:00,0,28202091,180844
OK,65,27,649,65,2014-10-02T02:55:00,0,28202540,180844
OK,65,27,649,65,2014-10-02T03:00:00,0,28202982,180844
OK,65,27,649,65,2014-10-02T03:05:00,0,28203430,180844
OK,65,27,649,65,2014-10-02T03:15:00,0,28203865,180844
OK,65,27,649,65,2014-10-02T03:30:00,0,28204314,180844
OK,65,27,649,65,2014-10-02T03:35:00,0,28204763,180844
OK,65,27,649,65,2014-10-02T03:40:00,0,28205212,180844
OK,65,27,649,65,2014-10-02T03:45:00,0,28205640,180844
OK,65,27,649,65,2014-10-02T03:50:00,0,28206070,180844
OK,65,27,649,65,2014-10-02T03:55:00,0,28206470,180844
OK,66,27,649,66,2014-10-02T04:00:00,1,28206919,180844
OK,66,27,649,66,2014-10-02T04:05:00,0,28207368,180844
OK,66,27,649,66,2014-10-02T04:10:00,0,28207787,180844
OK,66,27,649,66,2014-10-02T04:15:00,0,28208236,180844
OK,66,27,649,66,2014-10-02T04:20:00,0,28208663,180844
OK,66,27,649,66,2014-10-02T04:25:00,0,28209112,180844
OK,35,51,649,35,2014-10-02T04:30:00,4,28209550,180844
OK,61,29,649,61,2014-10-02T04:35:00,1,28209999,180844
OK,78,23,649,78,2014-10-02T04:40:00,1,28210422,180844
OK,78,23,649,78,2014-10-02T04:45:00,0,28210871,180844
OK,78,23,649,78,2014-10-02T04:50:00,0,28211296,180844
OK,87,20,649,87,2014-10-02T04:55:00,4,28211740,180844
OK,79,23,649,79,2014-10-02T05:00:00,3,28212118,180844
OK,65,27,649,65,2014-10-02T05:05:00,3,28212567,180844
OK,61,29,649,61,2014-10-02T05:10:00,1,28212996,180844
OK,112,16,649,112,2014-10-02T05:15:00,5,28213445,180844
OK,106,17,649,106,2014-10-02T05:20:00,1,28213883,180844
OK,49,37,649,49,2014-10-02T05:25:00,6,28214332,180844
OK,56,32,649,56,2014-10-02T05:30:00,1,28214745,180844
OK,56,32,649,56,2014-10-02T05:35:00,0,28215194,180844
OK,79,23,649,79,2014-10-02T05:40:00,9,28215610,180844
OK,65,27,649,65,2014-10-02T05:45:00,2,28216059,180844
OK,57,31,649,57,2014-10-02T05:50:00,0,28216398,180844
OK,84,21,649,84,2014-10-02T05:55:00,11,28216838,180844
OK,79,23,649,79,2014-10-02T06:00:00,9,28217285,180844
OK,79,23,649,79,2014-10-02T06:05:00,9,28217734,180844
OK,67,27,649,67,2014-10-02T06:10:00,1,28218173,180844
OK,43,42,649,43,2014-10-02T06:15:00,5,28218622,180844
OK,54,33,649,54,2014-10-02T06:20:00,4,28219042,180844
OK,98,18,649,98,2014-10-02T06:25:00,4,28219491,180844
OK,89,20,649,89,2014-10-02T06:30:00,6,28219864,180844
OK,88,20,649,88,2014-10-02T06:35:00,4,28220313,180844
OK,98,18,649,98,2014-10-02T06:40:00,0,28220747,180844
OK,72,25,649,72,2014-10-02T06:45:00,1,28221196,180844
OK,101,18,649,101,2014-10-02T07:00:00,4,28221863,180844
OK,97,18,649,97,2014-10-02T07:05:00,4,28222008,180844
OK,84,21,649,84,2014-10-02T07:10:00,7,28222457,180844
OK,82,22,649,82,2014-10-02T07:15:00,5,28222906,180844
OK,82,22,649,82,2014-10-02T07:20:00,0,28223337,180844
OK,99,18,649,99,2014-10-02T07:25:00,3,28223772,180844
OK,99,18,649,99,2014-10-02T07:30:00,1,28224220,180844
OK,99,18,649,99,2014-10-02T07:35:00,12,28224575,180844
OK,102,17,649,102,2014-10-02T07:40:00,9,28225024,180844
OK,97,18,649,97,2014-10-02T07:45:00,0,28225439,180844
OK,117,15,649,117,2014-10-02T07:50:00,4,28225795,180844
OK,74,24,649,74,2014-10-02T07:55:00,4,28226244,180844
OK,81,22,649,81,2014-10-02T08:00:00,3,28226685,180844
OK,46,39,649,46,2014-10-02T08:05:00,2,28227134,180844
OK,61,29,649,61,2014-10-02T08:10:00,1,28227549,180844
OK,116,15,649,116,2014-10-02T08:15:00,2,28227998,180844
OK,129,14,649,129,2014-10-02T08:20:00,1,28228357,180844
OK,74,24,649,74,2014-10-02T08:25:00,7,28228806,180844
OK,101,18,649,101,2014-10-02T08:30:00,1,28229216,180844
OK,65,27,649,65,2014-10-02T08:35:00,7,28229665,180844
OK,92,19,649,92,2014-10-02T08:40:00,2,28230015,180844
OK,98,18,649,98,2014-10-02T08:45:00,0,28230464,180844
OK,100,18,649,100,2014-10-02T08:50:00,7,28230830,180844
OK,35,51,649,35,2014-10-02T08:55:00,3,28231277,180844
OK,80,22,649,80,2014-10-02T09:00:00,2,28231702,180844
OK,80,22,649,80,2014-10-02T09:05:00,0,28232151,180844
OK,105,17,649,105,2014-10-02T09:15:00,12,28232493,180844
OK,47,38,649,47,2014-10-02T09:20:00,2,28232942,180844
OK,75,24,649,75,2014-10-02T09:25:00,2,28233391,180844
OK,75,24,649,75,2014-10-02T09:30:00,0,28233815,180844
OK,90,20,649,90,2014-10-02T09:35:00,6,28234264,180844
OK,103,17,649,103,2014-10-02T09:40:00,4,28234597,180844
OK,77,23,649,77,2014-10-02T09:45:00,7,28235046,180844
OK,103,17,649,103,2014-10-02T09:50:00,4,28235473,180844
OK,42,43,649,42,2014-10-02T09:55:00,2,28235922,180844
OK,47,38,649,47,2014-10-02T10:00:00,0,28236365,180844
OK,0,0,649,0,2014-10-02T10:05:00,0,28236812,180844
OK,71,25,649,71,2014-10-02T10:10:00,10,28237214,180844
OK,54,33,649,54,2014-10-02T10:15:00,9,28237662,180844
OK,59,30,649,59,2014-10-02T10:20:00,3,28238111,180844
OK,92,19,649,92,2014-10-02T10:25:00,4,28238558,180844
OK,110,16,649,110,2014-10-02T10:30:00,0,28238999,180844
OK,104,17,649,104,2014-10-02T10:35:00,9,28239448,180844
OK,104,17,649,104,2014-10-02T10:40:00,6,28239878,180844
OK,97,18,649,97,2014-10-02T10:45:00,4,28240327,180844
OK,121,15,649,121,2014-10-02T10:50:00,2,28240771,180844
OK,60,30,649,60,2014-10-02T10:55:00,7,28241220,180844
OK,60,30,649,60,2014-10-02T11:00:00,0,28241652,180844
OK,60,30,649,60,2014-10-02T11:05:00,0,28242100,180844
OK,94,19,649,94,2014-10-02T11:10:00,6,28242496,180844
OK,64,28,649,64,2014-10-02T11:15:00,10,28242945,180844
OK,57,31,649,57,2014-10-02T11:20:00,9,28243394,180844
OK,61,29,649,61,2014-10-02T11:25:00,0,28243719,180844
OK,61,29,649,61,2014-10-02T11:30:00,0,28244157,180844
OK,113,16,649,113,2014-10-02T11:35:00,7,28244586,180844
OK,113,16,649,113,2014-10-02T11:40:00,5,28245035,180844
OK,104,17,649,104,2014-10-02T11:45:00,0,28245484,180844
OK,73,24,649,73,2014-10-02T11:50:00,8,28245890,180844
OK,48,37,649,48,2014-10-02T11:55:00,3,28246339,180844
OK,113,16,649,113,2014-10-02T12:00:00,4,28246776,180844
OK,113,16,649,113,2014-10-02T12:05:00,4,28247224,180844
OK,103,17,649,103,2014-10-02T12:10:00,0,28247671,180844
OK,59,30,649,59,2014-10-02T12:15:00,14,28248101,180844
OK,54,33,649,54,2014-10-02T12:20:00,8,28248550,180844
OK,72,25,649,72,2014-10-02T12:25:00,10,28248997,180844
OK,56,32,649,56,2014-10-02T12:30:00,4,28249425,180844
OK,58,31,649,58,2014-10-02T12:35:00,11,28249869,180844
OK,55,33,649,55,2014-10-02T12:40:00,3,28250258,180844
OK,53,34,649,53,2014-10-02T12:45:00,10,28250686,180844
OK,56,32,649,56,2014-10-02T13:20:00,11,28251546,180844
OK,82,22,649,82,2014-10-02T13:25:00,3,28251640,180844
OK,84,21,649,84,2014-10-02T13:30:00,10,28252011,180844
OK,120,15,649,120,2014-10-02T13:35:00,4,28252148,180844
OK,120,15,649,120,2014-10-02T13:40:00,0,28252595,180844
OK,86,21,649,86,2014-10-02T13:45:00,14,28253037,180844
OK,123,14,649,123,2014-10-02T13:50:00,7,28253454,180844
OK,143,12,649,143,2014-10-02T13:55:00,16,28253903,180844
OK,173,10,649,173,2014-10-02T14:05:00,0,28254593,180844
OK,205,8,649,205,2014-10-02T14:10:00,13,28254634,180844
OK,204,8,649,204,2014-10-02T14:15:00,15,28254757,180844
OK,206,8,649,206,2014-10-02T14:20:00,26,28255206,180844
OK,204,8,649,204,2014-10-02T14:25:00,10,28255655,180844
OK,205,8,649,205,2014-10-02T14:30:00,17,28256083,180844
OK,206,8,649,206,2014-10-02T14:35:00,9,28256532,180844
OK,222,8,649,222,2014-10-02T14:40:00,12,28256960,180844
OK,191,9,649,191,2014-10-02T14:45:00,12,28257409,180844
OK,174,10,649,174,2014-10-02T14:50:00,23,28257850,180844